Regional Weather Roundup
Issued by NWS

Home | Current Version | Previous Version | Text Only | Print | Product List | Glossary Off
Versions: 1 2 3 4 5 6 7 8 9 10 11 12 13 14 15 16 17 18 19 20 21 22 23 24 25 26 27 28 29 30 31 32 33 34 35 36 37 38 39 40 41 42 43 44 45 46 47 48 49 50

000
ASUS43 KMPX 221510
RWRMN
WEATHER ROUNDUP FOR MINNESOTA
NATIONAL WEATHER SERVICE TWIN CITIES/CHANHASSEN MN
1000 AM CDT TUE JUL 22 2014


NOTE: "FAIR" INDICATES FEW OR NO CLOUDS BELOW 12,000 FEET WITH NO
SIGNIFICANT WEATHER AND/OR OBSTRUCTIONS TO VISIBILITY. N/A MEANS
CURRENT SKY AND/OR WEATHER CONDITIONS ARE NOT AVAILABLE.

MNZ060>063-068>070-221600-
   Twin Cities Metro

CITY           SKY/WX    TMP DP  RH WIND       PRES   REMARKS
TWIN CITIES    MOSUNNY   77  64  64 NW13G25   29.92F
ST PAUL          N/A     76  65  68 N21G28    29.88F
CRYSTAL        MOSUNNY   78  64  61 N14G28    29.91F
BLAINE         MOSUNNY   77  66  69 NW17      29.91F
LAKEVILLE      MOSUNNY   75  66  73 W9        29.96R
EDEN PRAIRIE   PTSUNNY   77  64  64 NW12      29.96R
SOUTH ST PAUL  MOSUNNY   78  63  61 N15G22    29.90F
LAKE ELMO      FAIR      75  68  78 N12       29.92F
$$
MNZ001>005-007-008-013>017-022>024-027-028-221600-
   Northwest Minnesota

CITY           SKY/WX    TMP DP  RH WIND       PRES   REMARKS
BEMIDJI        SUNNY     68  58  69 NW17      30.02R
HALLOCK        SUNNY     66  59  77 N10       30.08R
ROSEAU         SUNNY     64  57  77 NW12      30.05R
THIEF RVR FALL SUNNY     66  55  68 NW15      30.07R
FOSSTON        SUNNY     66  57  72 NW12      30.07R
DETROIT LAKES  MOSUNNY   66  61  82 N13       30.09R
MOORHEAD       SUNNY     70  64  83 N9        30.10R
PARK RAPIDS    SUNNY     69  59  70 NW15      30.04R
$$
MNZ006-009>011-018-025>026-221600-
   North Central Minnesota

CITY           SKY/WX    TMP DP  RH WIND       PRES   REMARKS
BAUDETTE       SUNNY     68  58  70 NW14      30.01R
FLAG ISLAND    SUNNY     66  54  63 N15       30.00R
INTL FALLS     MOSUNNY   68  61  78 NW12      29.93R
WASKISH        SUNNY     68  61  77 NW12G18   30.01R
BIG FORK       MOSUNNY   66  61  82 NW6G16    29.96R
LONGVILLE      PTSUNNY   70  63  78 W13G18    30.00R
GRAND RAPIDS   CLOUDY    66  61  82 NW14      29.97R
CRANE LAKE     CLOUDY    64  63  94 NW10G16   29.90R
ORR            CLOUDY    66  61  82 NW10G20   29.89R
COOK           CLOUDY    66  63  88 NW10G18   29.91R
$$
MNZ012-019>021-037-221600-
   Northeast Minnesota

CITY           SKY/WX    TMP DP  RH WIND       PRES   REMARKS
DULUTH         CLOUDY    70  63  78 NW20G25   29.90R
ELY            CLOUDY    64  63  94 NW9G20    29.86R
HIBBING        CLOUDY    69  62  78 NW15G25   29.92R
DULUTH HARBOR  CLOUDY    73  66  78 W18G25    29.89R
TWO HARBORS    CLOUDY    70  63  78 NW9G25    29.83S
SILVER BAY     PTSUNNY   70  66  88 NW8G18    29.81R
GRAND MARAIS     N/A     66  63  90 NW8G20    29.71F
G MARAIS ARPRT PTSUNNY   68  61  77 W12G24    29.78R
$$
MNZ029>031-032-039>041-046>048-054>057-064-221600-
   West Central Minnesota

CITY           SKY/WX    TMP DP  RH WIND       PRES   REMARKS
FERGUS FALLS   SUNNY     70  59  68 N14       30.07R
WHEATON        SUNNY     68  61  77 NW16G24   30.09S
MORRIS         MOSUNNY   70  64  83 N21       30.04F
ALEXANDRIA     PTSUNNY   70  62  76 N16G23    30.05S
ELBOW LAKE     FAIR      68  61  77 NW16G22   30.06S
WADENA         MOSUNNY   68  61  77 NW13G23   30.04S
GLENWOOD       CLOUDY    70  63  78 NW15      30.04F
APPLETON       CLOUDY    72  61  68 N20G25    30.04S
BENSON         CLOUDY    70  63  78 N18G25    30.03S
MADISON        MOSUNNY   73  64  73 N20G28    30.05R
WILLMAR        FAIR      72  63  73 N21G30    30.02R
$$
MNZ033>034-036-042>043-049>051-058-059-221600-
   Central Minnesota

CITY           SKY/WX    TMP DP  RH WIND       PRES   REMARKS
ST CLOUD       CLOUDY    73  63  70 NW16G24   29.97F
SAUK CENTRE    CLOUDY    69  63  80 NW16G24   30.02F
PAYNESVILLE    RAIN      68  61  78 W17G23    30.01S
AITKIN         CLOUDY    72  63  73 NW8G17    29.96F
PINE RIVER     MOSUNNY   68  61  77 NW15G24   30.04R
BRAINERD       CLOUDY    68  61  78 NW12      30.02R
STAPLES        PTSUNNY   68  61  77 NW13G20   30.04R
LONG PRAIRIE   PTSUNNY   68  61  77 NW12G17   30.03S
LITTLE FALLS   PTSUNNY   70  61  73 NW8       30.01S
LITCHFIELD     CLOUDY    73  66  78 NW14G30   30.00R
BUFFALO        PTSUNNY   74  62  66 NW20G26   29.96F
MAPLE LAKE     PTSUNNY   74  65  73 NW18G26   29.98S
$$
MNZ037-044-045-052-053-221600-
   East Central Minnesota

CITY           SKY/WX    TMP DP  RH WIND       PRES   REMARKS
PRINCETON      CLOUDY    72  64  78 NW13G23   29.97F
MORA           CLOUDY    70  63  78 NW12G18   29.99R
CAMBRIDGE      MOSUNNY   73  61  64 W13G24    29.94F
RUSH CITY      PTSUNNY   74  64  70 NW13G20   29.95R
MOOSE LAKE     CLOUDY    68  61  77 W9G18     29.94R
HINCKLEY       CLOUDY    72  64  78 W10G17    29.96R
CLOQUET        CLOUDY    70  63  78 W16       29.92S
MCGREGOR       CLOUDY    68  63  83 NW14G21   29.97R
$$
MNZ071>073-080-081-089-090-097-098-221600-
   Southwest Minnesota

CITY           SKY/WX    TMP DP  RH WIND       PRES   REMARKS
MONTEVIDEO     CLOUDY    72  64  78 N18G25    30.04R
GRANITE FALLS  PTSUNNY   71  62  73 NW17G26   30.04R
CANBY          CLOUDY    72  63  72 NW15G23   30.06R
MARSHALL       CLOUDY    72  63  73 N17G25    30.04R
REDWOOD FALLS  PTSUNNY   73  64  73 N17G25    30.02R
OLIVIA         CLOUDY    72  63  73 N18G28    30.01R
PIPESTONE      MOSUNNY   73  63  68 NE16      30.06R
WINDOM         MOSUNNY   73  64  73 N17       30.03R
WORTHINGTON    MOSUNNY   72  64  78 N13       30.04R
JACKSON        MOSUNNY   73  63  68 N13G23    30.01
TRACY          CLOUDY    71  65  81 N16G22    30.05R
SLAYTON        PTSUNNY   72  64  75 N20       30.06R
$$
MNZ065>067-074>077-082>085-091>093-221600-
   South Central Minnesota

CITY           SKY/WX    TMP DP  RH WIND       PRES   REMARKS
MANKATO        PTSUNNY   73  63  68 NW8       29.97S
NEW ULM        CLOUDY    73  66  78 NW13      29.98F
ST JAMES       PTSUNNY   73  64  73 NW12      30.00S
FAIRMONT       PTSUNNY   75  63  64 N10G22    29.98R
GLENCOE        PTSUNNY   75  64  67 NW10G20   29.97R
FARIBAULT      PTSUNNY   79  63  57 W12       29.98R
OWATONNA       PTSUNNY   75  64  69 NW12      29.96S
WASECA         PTSUNNY   72  61  68 NW10      29.98R
ALBERT LEA     MOSUNNY   77  66  69 N8        29.94F
$$
MNZ078>079-086>088-094>096-221600-
   Southeast Minnesota

CITY           SKY/WX    TMP DP  RH WIND       PRES   REMARKS
ROCHESTER      MOSUNNY   79  67  66 NW10      29.95F
RED WING       MOSUNNY   81  64  57 NW8       29.92R
STANTON        MOSUNNY   77  65  65 W5        29.93S
DODGE CENTER   MOSUNNY   75  66  73 NW13      29.96F
WINONA         SUNNY     84  73  70 NW10G16   29.89F HX  91
AUSTIN         MOSUNNY   79  64  61 N9        29.93F
PRESTON        SUNNY     81  76  84 NW13      29.94F
$$
ABBREVIATIONS USED IN REMARKS
   TC - TEMPERATURES IN CELSIUS
  WCI - WIND CHILL INDEX
   HX - HEAT INDEX
  VSB - VISIBILITY
$$



USA.gov is the U.S. government's official web portal to all federal, state and local government web resources and services.